Theta_e
335 334 332 332 331 331 331 331 331 330 331 332 333 335 334 335 336 335 334 335 337 338 340 346 347 349 349 348 346 343 343 342 340 339 339 341 342 345 344 343 341 340 338
334 333 332 331 332 332 331 331 330 330 329 332 333 334 334 335 335 334 331 331 335 336 340 345 347 348 349 347 346 343 340 340 338 338 338 340 341 343 342 341 339 337 337
334 333 332 332 332 331 333 332 332 331 329 331 331 333 334 335 334 333 331 334 336 337 341 344 347 348 349 347 345 342 340 338 339 338 339 339 341 341 339 337 336 335 334
336 335 333 332 334 332 331 330 330 328 328 329 330 332 333 333 332 332 332 334 337 342 343 343 345 347 347 347 346 344 342 340 338 338 338 339 340 339 338 337 335 334 333
336 334 334 333 334 331 330 330 330 329 327 328 329 333 331 331 332 331 333 338 340 342 344 343 343 344 346 348 346 344 342 339 338 337 339 338 339 338 338 336 334 332 331
335 335 334 333 332 331 330 328 328 329 328 329 329 329 331 332 333 335 337 339 339 342 345 345 346 348 344 346 344 343 342 340 338 338 338 338 339 338 336 334 332 331 330
334 334 333 333 332 330 330 330 328 328 328 330 329 328 327 331 333 335 338 338 335 338 344 346 347 347 346 342 342 342 342 339 338 339 337 337 337 337 335 333 331 330 328
334 333 333 331 332 329 329 328 328 325 327 329 325 321 318 325 330 332 337 337 334 336 339 341 344 345 345 340 342 341 341 341 341 339 337 337 337 336 333 332 330 329 328
333 334 332 331 331 329 327 328 329 329 326 328 331 324 318 317 323 332 332 335 333 335 337 338 341 342 343 343 340 340 340 340 341 338 338 336 335 334 332 331 330 329 328
332 333 332 332 330 329 328 328 329 332 331 323 328 334 333 330 320 320 329 332 334 335 337 338 339 340 340 339 338 338 336 337 337 337 337 335 334 333 332 331 330 329 328
333 332 333 331 331 329 330 330 330 330 331 330 331 330 332 332 331 324 319 322 329 332 333 333 333 333 335 335 335 334 334 333 333 334 335 335 334 333 332 331 330 329 328
333 333 333 333 332 330 329 329 331 331 331 332 329 329 328 326 326 324 322 322 322 326 331 333 333 333 333 333 336 333 331 330 329 330 331 333 334 333 332 331 330 329 329
332 333 334 334 332 332 331 331 331 331 331 332 332 327 324 327 332 332 326 321 321 323 325 329 331 332 333 332 333 332 330 327 326 325 327 329 331 332 332 331 330 329 328
333 334 334 334 333 332 331 332 330 331 332 331 331 331 327 324 326 334 326 322 320 319 322 325 330 330 330 330 329 330 328 325 323 322 322 324 326 328 329 329 330 328 328
334 333 334 332 332 331 331 332 330 331 328 327 333 330 326 326 332 335 329 326 322 316 318 323 323 328 329 329 329 329 329 324 324 320 320 321 322 323 324 325 325 325 325
333 333 333 332 332 331 331 332 330 332 330 330 331 332 327 330 332 330 326 324 325 323 319 324 324 326 328 329 330 329 328 325 322 320 320 319 319 320 321 321 321 322 323
333 332 332 332 332 331 331 331 331 330 330 330 331 330 325 330 327 326 331 333 331 329 321 323 325 326 325 325 327 327 327 326 324 320 320 318 316 317 318 318 319 319 319
332 333 332 331 330 330 330 329 328 327 327 326 325 328 323 330 331 327 326 329 329 331 324 319 324 324 323 325 325 324 325 326 325 321 318 316 315 315 316 317 316 315 313
332 331 332 330 330 329 328 328 328 327 325 326 329 328 324 328 328 330 330 331 329 328 325 323 321 324 323 324 324 325 325 324 326 322 318 316 315 316 315 313 312 311 308
331 331 332 331 330 327 326 326 325 324 324 325 328 327 328 329 330 331 329 329 330 326 324 322 321 321 321 325 324 321 318 322 322 323 316 316 315 312 312 311 310 307 304
331 329 329 327 330 325 324 324 324 324 325 324 326 326 327 327 322 326 328 330 328 325 323 321 320 320 320 321 321 322 317 317 321 324 323 324 321 316 313 309 308 306 303
329 328 327 327 328 324 306 310 321 324 325 325 325 325 327 321 316 310 313 315 321 323 321 320 321 320 321 320 320 321 318 317 316 325 318 314 316 313 313 311 304 302 301
331 327 326 329 325 322 304 306 312 327 326 325 324 324 323 321 322 322 310 311 311 310 314 323 320 321 323 325 326 322 322 321 321 322 316 311 314 310 309 304 301 300 299
330 329 323 323 323 317 302 304 310 328 326 325 324 324 322 320 320 321 323 320 320 319 320 324 326 326 329 328 329 331 325 320 321 319 321 310 313 309 308 305 300 298 297
329 329 327 319 320 313 301 303 316 326 325 324 323 323 323 317 302 306 320 317 318 316 303 301 303 301 303 307 318 324 318 319 316 316 319 313 310 309 309 307 302 298 296
327 328 327 325 314 315 299 304 317 325 325 323 323 321 309 316 300 305 323 321 321 318 317 321 322 313 316 311 309 330 325 323 319 312 316 314 312 311 308 308 307 305 305
Wind_Speed
9 8 7 7 7 6 6 6 6 5 7 8 8 10 10 10 8 5 5 9 11 12 13 14 15 18 21 21 23 20 21 22 12 9 6 11 15 16 16 16 15 14 13
8 8 8 8 8 7 6 6 6 6 6 6 8 9 9 9 8 7 6 7 12 12 12 13 15 20 21 23 25 23 20 19 18 15 14 16 17 16 17 16 15 14 14
9 9 8 8 8 7 8 6 6 5 6 5 8 7 7 8 7 8 7 6 7 11 12 12 15 21 22 29 26 25 27 21 19 17 17 16 17 15 17 17 17 16 15
10 9 8 8 6 7 7 6 6 6 6 5 6 6 6 5 7 7 7 7 6 5 8 11 15 22 25 26 27 25 24 24 18 17 15 16 17 16 16 17 17 17 16
9 9 7 6 6 6 6 5 5 6 5 6 6 5 5 5 6 5 7 6 5 6 5 7 17 21 22 22 23 24 25 25 22 18 16 18 18 17 17 17 18 17 16
7 8 7 7 6 6 5 5 7 6 6 6 6 5 3 3 4 4 3 3 3 4 4 7 8 12 21 22 23 25 25 24 23 19 19 18 18 18 17 18 18 17 16
6 8 6 6 6 7 6 7 7 8 5 6 5 4 2 1 1 3 3 2 2 1 3 5 6 7 11 21 22 24 27 27 25 22 19 18 17 18 19 18 17 16 15
5 7 6 6 6 5 6 8 9 6 3 7 4 5 5 4 4 3 3 3 3 2 4 5 7 11 11 9 15 24 29 30 27 25 20 18 18 18 18 17 16 16 15
3 5 5 5 5 6 6 8 8 8 5 6 6 2 4 3 6 4 4 4 5 3 4 5 6 9 11 10 14 19 24 27 27 26 23 20 19 18 18 17 16 15 14
4 5 5 5 6 6 7 8 7 5 7 7 5 2 2 3 5 5 3 4 4 5 5 3 6 7 10 8 14 17 22 24 26 24 23 21 19 18 18 17 15 13 12
4 4 5 5 6 6 7 8 7 5 3 4 4 3 1 2 3 4 5 3 3 3 4 3 5 5 8 10 9 17 21 21 22 21 19 18 18 18 18 16 14 13 11
3 5 5 5 6 6 7 8 7 6 4 4 3 4 1 1 3 4 6 5 3 2 3 5 4 5 6 8 13 23 20 22 17 12 13 14 16 17 16 15 13 11 9
3 4 5 6 6 6 7 7 7 5 4 4 6 5 2 1 2 3 7 3 2 2 2 2 4 6 4 7 15 24 23 19 15 11 10 11 12 13 13 13 12 10 8
1 3 5 5 6 7 8 7 5 4 4 4 6 6 6 3 2 6 6 6 5 2 1 3 1 4 11 11 18 24 14 15 13 10 10 12 11 10 10 9 9 7 5
1 4 5 6 6 7 7 8 5 6 4 4 5 7 7 5 5 4 5 2 2 4 2 3 2 6 11 12 15 13 12 14 11 9 10 11 9 9 9 8 7 6 4
4 5 6 6 6 7 7 6 5 6 7 5 4 7 7 5 6 5 5 3 1 3 4 2 1 11 13 11 15 12 10 13 12 9 10 7 8 8 7 7 6 5 2
4 5 7 7 8 8 7 6 6 7 7 7 6 7 6 9 7 6 7 6 3 4 6 3 2 13 16 14 11 10 9 8 6 8 7 9 8 7 7 5 3 2 2
5 5 6 6 7 9 8 7 8 8 7 6 6 5 7 7 9 7 3 6 6 6 8 9 6 8 13 13 12 12 7 5 6 6 7 7 7 5 4 3 2 2 3
5 5 6 8 9 9 9 8 8 8 7 5 6 7 5 6 8 7 7 7 7 6 6 7 5 6 10 10 11 8 8 6 4 6 4 5 7 5 4 5 6 6 8
6 6 6 7 8 8 8 8 8 9 8 6 6 7 7 7 8 9 6 7 8 8 7 8 9 8 11 7 7 7 4 4 3 5 9 10 10 12 10 12 14 15 15
6 6 7 6 8 8 7 9 8 9 9 8 7 7 6 6 7 7 6 8 8 6 7 8 7 8 7 8 8 3 4 5 4 6 7 7 8 9 10 15 18 18 17
6 7 6 7 7 5 8 10 10 8 9 9 9 7 8 10 9 10 10 10 7 9 10 7 6 9 8 7 4 5 7 5 6 5 8 9 7 9 9 9 15 16 15
7 6 4 6 8 8 9 9 10 8 8 8 9 8 7 6 8 10 12 14 13 13 9 8 11 9 11 10 9 8 6 5 7 9 11 9 7 9 9 9 13 14 14
7 6 4 5 9 5 8 9 9 10 8 9 9 8 8 7 7 8 10 9 8 8 6 4 8 8 8 9 8 7 9 9 9 7 6 8 7 8 8 9 9 12 11
6 6 6 5 8 5 7 9 9 10 9 9 8 6 8 9 6 8 8 8 9 8 9 10 11 8 11 12 9 9 9 10 7 6 3 7 8 8 7 7 8 8 7
7 6 6 10 10 7 7 9 8 7 11 7 6 5 9 9 8 7 7 9 10 8 9 11 10 11 10 8 4 5 9 7 6 5 5 5 9 7 5 5 4 4 5
Wind_Direction
236 233 237 244 242 242 248 246 246 253 250 248 244 229 219 216 222 241 248 247 257 258 266 257 238 203 194 173 157 155 152 134 163 165 152 183 162 137 132 121 117 119 120
235 237 235 232 239 237 235 241 237 241 238 241 237 228 217 213 217 238 246 251 253 257 266 251 233 207 188 170 153 149 152 154 171 174 183 190 164 131 127 127 128 129 133
237 240 235 236 236 232 231 235 233 229 230 224 232 217 211 215 225 236 241 251 248 236 250 245 229 191 172 159 166 163 162 170 177 192 181 178 139 134 133 140 132 137 132
240 240 242 239 237 222 216 222 226 220 222 217 214 206 202 217 231 240 244 255 236 248 219 236 198 181 175 172 175 174 167 163 163 168 163 170 138 142 142 136 139 136 129
236 235 239 241 216 206 213 220 222 228 211 209 204 187 194 218 228 232 245 233 241 250 228 214 191 172 173 169 169 170 167 149 160 151 174 158 145 144 142 137 135 134 131
239 242 236 224 208 213 209 210 219 209 216 205 184 168 184 237 230 231 224 215 231 235 222 196 179 177 173 171 174 169 161 150 145 160 166 152 148 144 142 139 141 135 132
249 235 232 217 208 216 217 209 211 192 189 171 158 153 109 212 210 196 183 125 81 203 202 190 175 175 173 172 163 168 158 151 155 169 162 151 144 147 143 140 138 136 141
253 221 208 209 203 201 194 191 191 175 165 176 173 153 164 142 112 99 144 121 95 112 132 134 171 176 167 165 172 168 160 158 160 158 153 147 152 143 140 142 142 153 138
219 199 198 214 204 196 188 188 193 190 161 179 203 156 165 176 153 150 148 117 113 125 105 124 138 154 154 156 159 164 155 151 159 157 153 147 145 147 144 150 159 146 141
210 194 212 198 192 190 182 184 196 196 160 161 174 193 86 144 180 157 126 120 145 139 136 155 134 140 146 141 149 156 146 160 154 151 149 152 147 150 151 160 152 145 145
223 207 199 167 178 192 189 184 187 181 193 154 181 160 137 168 146 166 132 112 98 131 137 130 127 130 148 151 148 141 153 148 142 137 151 138 158 155 159 156 151 153 150
210 205 199 180 177 183 186 186 186 187 191 175 172 100 85 33 151 166 138 111 141 110 118 121 135 143 146 155 157 150 135 126 125 141 136 159 151 159 155 155 158 159 153
188 185 187 178 181 185 181 185 179 174 188 188 155 125 99 185 270 166 130 123 121 95 101 127 138 160 151 136 152 127 119 122 127 137 143 139 146 149 156 161 160 157 158
152 166 171 168 173 178 172 171 168 159 157 148 161 151 146 165 249 153 136 141 119 98 139 106 125 145 136 118 124 121 128 128 129 137 141 139 132 148 152 154 154 147 139
116 144 148 155 158 170 164 158 161 144 131 138 115 121 143 177 188 104 111 84 80 133 124 86 108 110 113 121 125 126 131 127 136 133 129 121 142 152 147 148 148 151 154
109 136 148 150 141 143 145 156 144 137 143 140 141 148 144 153 137 112 121 110 169 165 119 73 124 130 127 123 125 122 126 126 123 135 122 135 156 148 150 151 167 171 151
114 139 160 155 143 137 133 132 132 133 138 135 144 148 130 155 137 150 165 179 139 104 115 80 351 129 120 124 116 112 120 120 128 123 138 178 147 147 163 168 180 96 137
100 126 150 148 141 133 130 135 130 136 139 144 133 145 136 151 139 127 128 132 124 112 129 133 105 115 125 125 121 120 127 124 128 167 170 138 145 149 122 121 152 124 75
107 120 139 143 141 130 134 138 138 136 138 147 142 126 148 154 130 151 153 130 126 113 120 132 122 111 129 128 126 131 131 127 136 149 104 105 101 122 121 91 94 90 82
117 121 126 130 130 130 132 134 137 133 134 138 132 136 158 152 151 148 150 145 139 128 123 125 129 123 127 135 120 130 104 89 96 110 76 77 84 80 88 85 82 84 86
104 114 123 122 134 130 135 135 136 134 131 130 127 136 150 134 95 121 143 145 135 125 135 137 119 126 133 139 134 108 94 112 97 128 108 101 107 99 93 83 84 85 81
113 125 126 135 137 117 125 124 136 137 139 136 126 123 124 112 97 92 97 88 117 139 133 133 128 137 136 117 117 117 130 156 121 127 100 103 106 92 87 88 95 89 86
119 100 96 124 116 122 127 126 129 125 122 118 116 116 107 112 117 102 99 92 80 75 89 131 141 146 147 154 144 141 158 151 122 131 123 112 111 103 106 95 90 91 82
127 122 112 105 124 129 138 125 124 124 116 113 104 100 98 84 102 107 102 92 86 76 56 95 138 147 152 152 152 152 132 113 116 145 149 129 137 114 116 107 85 88 83
133 117 115 117 124 131 132 132 139 126 119 113 104 96 102 94 104 105 104 106 106 89 52 62 76 84 114 127 139 134 150 150 144 152 162 123 149 143 145 129 115 113 100
126 123 108 117 115 134 159 136 129 130 122 116 105 103 81 107 101 113 129 129 119 124 126 124 106 96 106 102 61 199 170 171 138 148 156 150 161 157 165 155 151 160 131